Regional Weather Roundup
Issued by NWS

Home | Current Version | Previous Version | Graphics & Text | Print | Product List | Glossary On
Versions: 1 2 3 4 5 6 7 8 9 10 11 12 13 14 15 16 17 18 19 20 21 22 23 24 25 26 27 28 29 30 31 32 33 34 35 36 37 38 39 40 41 42 43 44 45 46 47 48 49 50
000
ASUS43 KIND 201409
RWRIN

WEATHER ROUNDUP FOR INDIANA
NATIONAL WEATHER SERVICE INDIANAPOLIS IN
1000 AM EDT MON OCT 20 2014

NOTE: "FAIR" INDICATES FEW OR NO CLOUDS BELOW 12,000 FEET WITH NO
SIGNIFICANT WEATHER AND/OR OBSTRUCTIONS TO VISIBILITY.

* - STATION DOES NOT REPORT WEATHER SUCH AS PRECIPITATION OR FOG.

+ - STATION NOT QUALITY CONTROLLED BY THE NATIONAL WEATHER SERVICE.
    USE DATA WITH CAUTION...ESPECIALLY DEWPOINT AND RELATIVE
    HUMIDITY OBSERVATIONS.

INZ001>003-010>013-019-020-201500-
NORTHWEST INDIANA

CITY           SKY/WX    TMP DP  RH WIND       PRES   REMARKS
GARY /AIRPORT/ MOSUNNY   54  46  76 W12       29.85S
KNOX *+        PTSUNNY   51  45  77 SW9       29.85S
LA PORTE +     MOSUNNY   52  49  90 SW6       29.85S
MICHIGAN CITY+ MOSUNNY   50  45  81 SW6       29.85R
MONTICELLO +   PTSUNNY   52  47  83 SW15      29.86F
RENSSELAER +   PTSUNNY   52  50  93 SW10      29.86S
VALPARAISO     MOSUNNY   52  46  80 SW10      29.85R

$$

LMZ046-743>745-201500-
SOUTHERN LAKE MICHIGAN

STATION/POSITION TIME  TEMP WIND        PRES
                       AIR  DIR/SP/G
                 (UTC) (F)  (DEG/KT/KT) (MB)
MICHIGAN CITY    1400   49  180/  9/ 12   N/A

$$

INZ004-005-014>016-021>024-201500-
NORTH CENTRAL INDIANA

CITY           SKY/WX    TMP DP  RH WIND       PRES   REMARKS
ELKHART        LGT RAIN  50  45  81 S8        29.85S
GOSHEN         PTSUNNY   52  46  80 SW10      29.85S
LOGANSPORT +   PTSUNNY   52  45  76 SW14      29.88S
PERU/GRISSOM   MOSUNNY   53  51  92 SW15      29.87F
ROCHESTER +    MOSUNNY   54  46  76 SW10      29.87R
SOUTH BEND     PTSUNNY   50  46  86 SW9       29.85S
WARSAW +       PTSUNNY   52  45  76 SW8       29.87R

$$

INZ006>009-017-018-025>027-201500-
NORTHEAST INDIANA

CITY           SKY/WX    TMP DP  RH WIND       PRES   REMARKS
ANGOLA *+      MOSUNNY   52  45  76 SW7       29.85F
AUBURN +       PTSUNNY   52  45  76 S9        29.87F
FORT WAYNE     PTSUNNY   51  45  79 SW13      29.88S
HUNTINGTON +   MOSUNNY   51  46  84 SW8       29.87F

$$

INZ028-029-035-036-043>045-051>053-201500-
WEST CENTRAL INDIANA

CITY           SKY/WX    TMP DP  RH WIND       PRES   REMARKS
CRAWFORDSVL +  PTSUNNY   50  46  87 S13       29.90
GREENCASTLE +  PTSUNNY   50  45  81 S5        29.94R
LAFAYETTE      LGT RAIN  52  46  80 SW10      29.87F
TERRE HAUTE    PTSUNNY   53  47  79 SW9       29.95R

$$

INZ030>032-037>040-046>048-054>057-064-065-201500-
CENTRAL INDIANA

CITY           SKY/WX    TMP DP  RH WIND       PRES   REMARKS
ANDERSON       CLOUDY    52  45  76 S17       29.93S
CP ATTERBURY + PTSUNNY   52  45  76 SW10G16   29.96F
COLUMBUS       PTSUNNY   50  48  93 S12       29.97F
FRANKFORT +    MOSUNNY   53  47  80 S12       29.90F
INDIANAPOLIS   LGT RAIN  51  46  83 SW12      29.93S
-EAGLE CREEK   CLOUDY    52  46  80 SW7       29.92R
KOKOMO *+      MOSUNNY   54 N/A N/A SW12      29.89S
MARION +       CLOUDY    50  44  80 S13       29.89F
MT COMFORT *+  MOSUNNY   52  43  71 SW12      29.94R
SHELBYVILLE    PTSUNNY   53  46  77 S15       29.94F
ZIONSVILLE +   CLOUDY    53  45  74 SW13      29.92R

$$

INZ033-034-041-042-049-050-058-059-201500-
EAST CENTRAL INDIANA

CITY           SKY/WX    TMP DP  RH WIND       PRES   REMARKS
MUNCIE         CLOUDY    53  45  74 SW12      29.90F

$$

INZ060-061-067>069-081>083-085>088-201500-
SOUTHWEST INDIANA

CITY           SKY/WX    TMP DP  RH WIND       PRES   REMARKS
EVANSVILLE     PTSUNNY   55  48  77 SW8       30.03R
HUNTINGBURG *+ PTSUNNY   52  46  82 SW10      30.02F
WASHINGTON +   CLOUDY    54  48  81 S12       29.97F

$$

INZ062-063-066-070>080-084-089>092-201500-
SOUTH CENTRAL AND SOUTHEAST INDIANA

CITY           SKY/WX    TMP DP  RH WIND       PRES   REMARKS
BEDFORD +      CLOUDY    52  46  82 S7        29.99
BLOOMINGTON    PTSUNNY   52  46  80 S12       29.96F
NORTH VERNON + PTSUNNY   54  52  94 S9        29.99
SEYMOUR +      PTSUNNY   54  48  82 S8        30.00

$$



USA.gov is the U.S. government's official web portal to all federal, state and local government web resources and services.